sat.trackr.live / text

‹ back to catalog

STARLINK-2045

NORAD 47353 · 2021-005E

PAYLOAD ACTIVE UNKNOWN

§ Identity

Operator
Country
US
Launch date
2021-01-20
Launch site
AFETR
Launch vehicle
Mass (kg)
RCS (m²)

Purposes: comms

External: N2YO · Heavens-Above · Gunter

§ Orbital elements

Epoch: 2026-05-24T23:45:17.489664Z

Period
94.01 min
Inclination
53.1607°
Eccentricity
0.0001432
Mean motion
15.31715913 rev/d
Perigee alt
469.7 km
Apogee alt
471.7 km
Semi-major
6,848.8 km
B*
1.5104e-4
RAAN
5.7824°
Arg perigee
95.7288°
Mean anomaly
264.3877°
Rev number
29,559

§ Raw data

STARLINK-20451 47353U 21005E   26144.98978576  .00004327  00000+0  15104-3 0  99952 47353  53.1607   5.7824 0001432  95.7288 264.3877 15.31715913295594

JSON: /api/v1/satellites/47353 · /tle

For live sub-satellite position, see the globe view (requires WebGL).

§ Visibility from observer

Set your observer location to see the next 7 days of passes ≥ 10°. The values pass through the URL so the page stays shareable.

No JS? Fill the form by hand. The geolocation button needs JavaScript.